PUUANAHULU RAWS NEAR KAILUA KONA 20NE HADS current weather conditions

sailwx.info

Wind from 348 at 6 knots gusting 12

Air temperature 22.2° C
Dewpoint 9.4° C

Last reported at 2017-Nov-22 20:37 UTC.
Time now 2017-Nov-22 22:16 UTC

Location: N 19°50' W 155°46'.
View on Google Maps.

See reports from other nearby stations

  
Tides and Currents Weather Stations Pressure Air Temp Water Temp Dewpoint Dewpoint Depression Visibility Wind Speed Wind Dir Waves Ship Positions
date/time (UTC)wind fromknots sea level pressurealtimeterstation pressurevisibilityair tempwater tempwave heightnotes
2017-Nov-22 20:37 348 6 gusting 12 22.2
2017-Nov-22 19:37 006 4 gusting 11 21.7
2017-Nov-22 18:37 128 6 gusting 13 19.4
2017-Nov-22 17:37 133 9 gusting 17 13.9
2017-Nov-22 16:37 134 10 gusting 16 12.2
2017-Nov-22 15:37 134 10 gusting 14 12.2
2017-Nov-22 14:37 135 10 gusting 16 12.8
2017-Nov-22 13:37 130 11 gusting 16 12.8
2017-Nov-22 12:37 132 10 gusting 15 12.8
2017-Nov-22 11:37 133 8 gusting 13 13.3
2017-Nov-22 10:37 132 7 gusting 11 13.3
2017-Nov-22 09:37 136 6 gusting 9 13.9
2017-Nov-22 08:37 149 4 gusting 6 15.0
2017-Nov-22 07:37 162 3 gusting 5 16.1
2017-Nov-22 06:37 055 3 gusting 7 16.1
2017-Nov-22 05:37 054 2 gusting 7 16.1
2017-Nov-22 04:37 040 4 gusting 10 16.1
2017-Nov-22 03:37 039 3 gusting 10 17.8
2017-Nov-22 02:37 039 8 gusting 13 18.9
2017-Nov-22 01:37 349 5 gusting 13 20.0
2017-Nov-22 00:37 341 6 gusting 13 20.6
2017-Nov-21 23:37 011 8 gusting 13 21.1
2017-Nov-21 22:37 348 6 gusting 17 21.1
2017-Nov-21 21:37 323 6 gusting 11 21.1
2017-Nov-21 20:37 341 6 gusting 12 20.6
2017-Nov-21 19:37 335 4 gusting 8 20.6
2017-Nov-21 18:37 056 1 gusting 11 20.0
2017-Nov-21 17:37 134 7 gusting 14 14.4
2017-Nov-21 16:37 130 7 gusting 11 12.8
2017-Nov-21 15:37 119 6 gusting 10 12.8
2017-Nov-21 14:37 133 7 gusting 12 13.9
2017-Nov-21 13:37 132 8 gusting 14 13.3
2017-Nov-21 12:37 136 7 gusting 13 13.3
2017-Nov-21 11:37 138 6 gusting 9 14.4
2017-Nov-21 10:37 124 4 gusting 7 15.6
2017-Nov-21 09:37 148 5 gusting 9 15.0
2017-Nov-21 08:37 129 6 gusting 8 13.9
2017-Nov-21 07:37 113 4 gusting 9 15.0
2017-Nov-21 06:37 147 5 gusting 8 15.0
2017-Nov-21 05:37 185 3 gusting 7 16.7
2017-Nov-21 04:37 232 3 gusting 6 17.8
2017-Nov-21 03:37 035 3 gusting 9 18.3
2017-Nov-21 02:37 271 6 gusting 12 19.4
2017-Nov-21 01:37 255 7 gusting 13 20.6
2017-Nov-21 00:37 284 6 gusting 14 21.1
2017-Nov-20 23:37 005 7 gusting 16 22.8
2017-Nov-20 22:37 327 6 gusting 13 23.3